THOR ABLESTAR DEB, 134

Orbit data source: Space-Track

THOR ABLESTAR DEB, 134 is space debris in LEO originally from a launch on Thu, 29 Jun 1961 UTC launched from the Air Force Eastern Test Range (AFETR). Debris objects in space refer to the collection of defunct objects orbiting the Earth. Examples of debris include non-operational satellites, rocket bodies, and fragments generated from explosions, collisions, or faulty payload assembly.

Loading next visibility...
Identifier
134, 1961-015U
Orbit
LEO
Country
Flag of USUS
Related business
Manufacturer
Unknown
Mission
Spacecraft
Bus & Motor
Unknown
Mass
Unknown
Launch date (UTC)
1961-06-29 (64 years ago)
Launch vehicle
Unknown
Launch site
Air Force Eastern Test Range (AFETR)
Object type
Payload
Rocket body
Debris
Shape & HBR
Unknown shape, 1.1 m
Radar Cross Section
Large (>1 m²)

Expand to show TLE details & history
Last TLE update: 10 hours ago

TLE from 10 hours ago
0 THOR ABLESTAR DEB
1 00134U 61015U   25354.83030800  .00000039  00000-0  80162-4 0  9995
2 00134  66.8796 125.9014 0085676 317.0427  42.3986 13.97694774280773
Epoch: 2025-12-20T19:55Z
TLE epoch observation values (Epoch: 2025-12-20T19:55:38.611Z)
Latitude
Longitude
97.33904°
Altitude
858.059 km
Speed
7.447 km/s
True Right ascension
08h 23m 36s
True Declination
0° 00' 00"
Sunlit
Object was in full shadow at epoch
Visualization orbit readout
Latitude
Unknown
Longitude
Unknown
Altitude
Unknown
Speed
Unknown
Apparent Right ascension
Unknown
Apparent Declination
Unknown
Sunlit
N/A
Visualization observer readout
Local Sidereal Time
04:46:24
Azimuth
Unknown
Elevation
Unknown
Doppler factor
Unknown
Orbital elements
Apogee altitude
962.525 km
Perigee altitude
837.81 km
Semi-major axis
7,278.305 km
Eccentricity
0.00857
Inclination
66.8796°
RAAN
125.9014°
Arg. of periapsis
317.0427°
True anomaly
43.06586°
Mean anomaly
42.3986°
Eccentric anomaly
42.7317°
Mean motion
3.49541 °/min
Orbital period
102.99 mins
BSTAR
0.000080162
Loading maneuver chart data...
Computing Atmospheric mass density...

Documentation

Showing up to 5 results
|